Helicity
159 149 144 143 140 138 141 149 153 158 174 181 188 193 204 207 215 230 232 208 224 211 201 198 207 208 208 204 197 176 184 183 174 183 159 150 151 148 157 166 147 133 110
109 104 112 116 124 134 148 160 169 174 190 188 195 206 219 228 238 231 246 244 235 225 198 194 187 191 195 181 163 165 148 138 133 136 126 140 152 161 156 164 156 121 93
83 85 98 111 120 134 141 153 161 175 195 211 220 226 233 238 239 239 236 240 226 207 187 166 164 155 146 148 138 142 132 120 110 118 119 118 123 123 128 136 135 133 101
73 69 74 83 97 117 135 153 166 174 190 204 204 200 198 207 214 214 212 215 219 209 186 189 149 129 127 116 90 75 69 83 89 106 111 112 114 121 143 145 142 128 116
59 53 55 75 97 119 142 158 163 165 163 160 170 173 165 158 143 160 179 185 183 194 209 155 121 92 95 87 70 78 84 87 98 118 125 133 144 156 162 152 162 152 128
58 48 58 76 84 95 113 131 145 154 158 158 161 153 153 141 147 141 144 154 164 153 130 105 102 123 110 101 96 101 96 96 113 126 135 150 154 166 174 178 171 174 183
73 56 58 70 81 90 92 101 117 139 151 167 163 154 162 145 136 127 129 128 104 69 59 71 85 81 86 87 100 126 129 130 123 111 126 130 146 152 176 172 157 154 138
102 91 81 75 74 86 97 101 121 132 140 148 161 154 146 117 124 111 92 62 60 64 64 69 70 64 63 87 95 105 110 116 103 110 120 116 119 127 130 129 123 112 101
103 89 90 72 83 91 104 112 125 141 156 168 152 137 130 122 95 65 57 57 63 66 61 57 69 74 79 87 86 90 94 94 100 116 108 108 108 95 93 105 105 134 129
96 98 105 80 92 100 114 127 137 149 146 131 132 124 108 79 52 47 47 41 57 56 64 66 63 62 74 71 72 72 85 74 83 84 84 88 101 113 128 116 130 147 142
134 141 115 102 102 106 124 130 138 142 133 120 124 118 85 50 38 42 46 44 47 54 54 54 55 57 56 55 65 61 59 65 73 78 86 94 109 126 134 129 140 151 159
143 129 121 106 96 101 112 128 112 111 105 102 89 74 57 53 44 46 51 52 51 50 49 49 45 44 50 50 63 46 65 86 82 92 97 103 115 123 127 129 124 126 117
136 119 102 92 93 104 115 110 95 80 85 68 57 49 35 38 49 48 48 58 49 52 50 45 45 35 53 58 51 58 91 85 92 102 105 106 109 107 115 130 129 129 116
114 103 101 110 110 106 101 75 76 60 53 48 45 46 42 40 37 49 62 63 62 66 61 56 42 47 51 53 62 77 79 87 103 114 112 103 107 117 129 137 152 140 138
117 115 117 100 107 97 61 36 32 29 42 52 44 51 57 48 44 45 57 57 58 50 64 57 56 59 59 61 66 73 84 99 118 112 113 119 113 121 131 146 152 141 139
131 128 128 106 113 79 58 47 16 25 22 19 27 47 50 45 46 48 50 51 50 51 77 66 64 64 64 66 67 77 100 109 115 122 131 125 122 126 131 158 168 147 131
122 130 116 101 98 69 59 48 48 49 34 23 22 33 41 52 48 50 57 59 54 56 85 83 78 76 73 71 76 94 100 114 130 125 122 126 128 133 119 153 154 143 121
100 88 98 104 89 63 56 56 72 85 77 74 65 54 45 52 53 56 62 72 96 78 97 91 90 91 90 85 82 97 106 111 130 131 131 132 139 137 136 155 156 150 120
116 89 77 95 84 63 74 80 82 87 81 81 88 78 60 54 56 56 56 113 113 107 108 108 104 101 97 97 95 103 121 126 131 137 142 140 149 147 140 151 143 102 87
105 91 104 110 111 107 106 103 100 95 94 92 95 94 116 101 121 115 114 129 140 130 126 121 119 120 117 116 110 118 131 138 135 139 152 168 178 163 154 151 154 148 135
120 109 85 119 126 125 123 117 118 126 117 114 104 117 96 144 139 140 135 138 144 140 136 136 129 125 128 128 130 133 145 144 147 149 156 157 182 194 155 153 154 157 139
137 124 133 142 137 144 136 142 149 143 132 129 133 142 90 134 155 156 150 143 147 132 133 141 149 128 122 132 134 139 149 149 155 161 158 161 171 186 175 168 171 159 154
173 156 139 156 167 139 143 160 167 163 161 165 172 179 193 180 180 172 160 159 162 178 170 159 205 164 140 127 134 151 164 163 166 175 165 166 176 180 185 178 180 167 158
162 141 153 163 177 175 164 167 169 147 165 170 193 210 219 220 223 226 230 223 228 200 191 230 217 156 162 151 160 166 161 167 184 173 179 188 181 167 186 179 173 162 157
137 150 156 164 168 181 169 179 178 175 186 202 208 215 238 233 224 211 226 254 247 216 208 195 154 158 150 148 153 133 142 101 148 168 196 201 184 181 191 194 185 180 169
138 141 150 151 163 177 189 205 221 227 214 200 206 234 248 239 236 241 240 233 217 191 169 161 162 147 145 142 125 109 90 90 108 101 157 199 207 208 211 204 189 212 188
Wind_Speed
39 40 41 44 45 45 46 45 46 45 44 42 40 40 39 39 37 36 36 36 42 42 42 42 43 42 42 44 43 42 42 41 41 41 40 41 40 36 36 36 32 29 27
38 40 43 44 45 47 48 48 48 47 45 43 41 41 41 40 40 39 37 38 38 38 38 38 38 38 40 40 40 41 40 40 37 37 37 40 41 39 37 37 35 34 32
37 40 42 44 45 46 47 46 46 44 43 41 40 40 39 38 36 36 34 34 34 34 34 33 34 34 36 37 39 39 38 38 37 34 36 37 40 38 39 39 38 37 35
37 39 41 43 42 42 42 41 40 39 38 36 35 35 34 31 31 31 30 29 29 29 29 30 31 31 34 35 36 37 37 39 38 37 38 39 39 39 40 41 40 39 39
37 38 40 39 38 38 39 38 37 35 34 32 30 30 30 31 30 27 25 25 23 24 28 29 31 32 34 35 36 38 38 39 38 39 39 40 41 41 41 41 41 42 41
39 40 37 36 37 38 37 36 35 32 30 28 29 29 29 28 24 22 21 20 21 23 24 28 32 35 36 36 37 39 39 39 39 40 41 43 43 41 39 41 43 48 47
40 41 40 39 40 37 35 33 32 30 28 28 26 24 24 22 20 19 19 20 21 23 25 28 32 34 36 37 38 39 42 43 40 40 42 42 43 39 39 41 42 42 42
36 37 37 39 37 35 33 31 27 25 24 22 20 19 18 18 19 19 19 21 23 26 28 30 32 34 36 38 39 38 40 43 42 41 41 40 39 37 37 38 39 39 39
31 38 34 36 34 32 30 27 25 20 19 18 17 15 15 17 17 18 19 22 24 28 30 31 33 36 38 40 39 39 39 40 42 42 41 41 41 40 34 35 40 42 44
34 36 33 34 31 29 25 23 22 18 15 14 13 14 14 16 17 19 21 23 26 28 30 33 34 36 39 40 40 40 40 39 41 43 42 41 42 41 42 38 36 41 41
29 29 35 32 28 26 22 19 15 14 12 10 11 14 15 17 19 21 23 25 26 28 30 33 34 37 39 39 37 39 38 37 41 42 42 41 41 41 41 41 38 39 42
28 28 28 27 25 21 18 16 14 10 7 9 10 13 17 20 21 22 25 27 28 29 32 33 36 37 39 39 37 36 37 38 40 41 42 42 42 42 43 44 41 38 38
23 23 25 24 23 18 15 11 9 7 7 9 11 14 16 20 22 24 26 28 29 33 32 35 39 38 37 38 37 37 36 38 39 40 42 43 42 42 44 45 43 42 44
23 24 22 19 17 16 15 10 8 6 9 12 14 17 18 20 21 23 26 29 32 34 35 37 39 38 36 37 35 36 38 37 38 39 42 43 43 43 46 45 48 50 50
18 19 19 18 15 13 11 8 9 13 13 15 18 19 20 22 22 19 22 27 30 32 34 37 38 37 37 36 35 36 36 37 37 40 43 45 46 46 47 46 48 49 48
17 15 14 14 14 11 11 16 23 24 24 25 27 23 24 26 23 17 20 26 29 31 34 37 38 37 37 37 37 37 37 38 37 40 43 45 46 47 48 47 46 48 49
15 13 11 10 10 12 13 14 17 26 29 28 27 26 23 23 20 18 22 27 31 32 33 36 38 37 38 38 37 36 38 39 38 41 43 45 46 46 48 49 48 47 48
17 12 11 12 11 12 12 14 17 18 21 27 30 26 24 23 22 21 26 30 33 33 33 35 37 37 37 38 38 37 38 39 38 41 44 46 45 46 48 47 46 46 45
14 16 16 17 16 15 15 17 20 22 25 30 31 32 28 26 26 26 26 29 32 34 35 36 36 36 37 38 39 39 40 40 41 42 44 44 46 47 47 45 42 42 43
20 18 19 20 20 22 25 25 26 26 27 29 30 30 31 28 29 27 29 31 34 35 36 35 36 36 36 38 41 41 41 41 43 43 43 43 43 45 47 46 42 41 42
23 24 23 27 27 28 29 30 31 30 31 33 31 30 28 29 30 30 31 32 35 37 37 37 38 38 38 40 41 41 41 43 43 44 44 43 42 45 48 45 43 42 45
29 28 26 28 31 34 34 35 36 40 44 45 41 38 33 34 36 35 36 37 37 38 38 38 40 39 39 39 39 41 43 45 44 45 45 45 45 44 47 47 47 48 48
36 36 37 35 34 36 38 38 38 39 43 45 45 45 43 42 41 40 40 41 41 42 41 41 42 41 40 39 38 39 42 43 43 44 46 47 48 48 48 48 49 51 52
43 42 41 44 44 41 42 43 42 40 40 41 42 45 46 45 45 44 44 43 42 42 41 39 40 41 41 40 39 38 39 40 41 41 41 45 47 47 48 49 50 50 52
48 48 50 50 48 48 53 54 52 50 49 47 45 43 43 44 43 44 44 42 41 40 38 37 37 37 37 37 37 39 38 37 37 37 39 41 45 46 46 47 49 50 51
51 53 52 52 54 54 55 58 57 56 56 54 51 47 45 45 44 42 40 39 37 37 39 36 35 33 34 35 35 36 35 34 35 36 38 40 43 45 44 45 47 48 49
Wind_Direction
289 292 295 296 296 299 300 303 305 306 308 309 311 311 312 313 315 315 315 315 316 319 322 323 325 331 334 335 337 339 339 339 335 342 346 347 347 349 351 352 356 356 354
287 291 294 296 297 298 300 300 301 302 308 310 312 311 312 313 314 313 314 317 319 321 325 327 331 337 340 342 344 344 345 347 346 346 351 351 351 352 354 353 356 358 357
291 294 296 299 299 300 301 302 302 304 308 311 311 312 313 315 317 318 320 322 325 328 330 334 339 345 347 350 353 355 355 356 357 357 357 358 357 360 356 356 356 355 354
297 297 299 300 302 305 305 307 309 309 312 315 318 319 321 323 324 325 327 331 335 340 344 348 352 358 359 2 5 5 5 2 1 2 359 355 356 357 357 353 352 353 350
299 301 301 303 306 306 307 309 311 314 316 319 322 324 324 324 325 331 336 341 350 355 357 360 5 10 12 9 7 4 1 359 0 359 356 355 353 353 352 353 350 347 346
297 299 304 307 307 306 308 308 309 315 319 323 324 323 325 330 341 346 352 358 -0 2 5 9 7 8 9 9 9 5 4 1 358 356 353 349 349 353 355 352 349 344 341
297 297 298 301 303 308 307 308 307 309 314 318 323 330 336 348 359 8 10 8 11 16 14 10 9 7 6 4 4 3 1 0 2 359 354 351 351 354 355 352 351 349 346
302 300 300 298 302 304 304 305 309 311 315 323 335 343 356 0 8 13 20 21 16 11 9 10 8 6 5 1 359 359 360 359 0 1 0 360 0 2 0 359 357 355 354
303 297 299 300 302 302 300 300 302 311 318 325 333 347 357 3 9 13 14 10 7 5 6 7 7 2 0 359 -0 359 360 1 2 4 4 4 4 4 7 5 359 357 353
297 294 298 300 299 299 300 296 298 306 317 327 338 345 354 354 357 358 360 360 359 -0 3 3 2 2 359 359 359 360 0 3 2 1 2 3 5 8 7 7 5 356 352
303 301 294 297 299 300 298 295 296 301 307 321 334 337 343 341 347 350 351 355 358 359 360 357 359 357 357 360 4 4 5 7 4 3 4 4 5 6 6 4 3 359 350
301 299 299 298 300 299 293 287 285 286 294 307 321 327 330 333 341 350 356 358 359 357 355 357 358 358 358 360 3 5 5 6 4 3 2 1 359 360 359 357 357 355 349
307 303 298 296 297 292 286 278 268 270 281 295 308 316 322 329 337 345 349 352 355 351 355 354 351 354 357 359 1 2 5 2 1 360 358 357 358 358 356 355 354 352 347
304 299 299 298 296 291 280 263 259 253 276 289 298 308 320 328 334 340 345 345 347 349 350 349 351 354 358 358 2 2 0 0 359 358 356 355 356 355 353 354 351 350 347
312 305 300 294 291 281 266 239 253 274 281 291 301 309 318 323 333 344 347 347 347 348 351 349 351 352 354 358 0 360 358 357 355 354 353 352 352 352 351 352 351 350 349
308 304 296 288 283 263 257 265 274 279 285 291 296 306 313 322 335 348 348 346 346 348 348 347 348 350 351 353 354 353 352 352 352 350 350 349 349 349 349 351 352 350 348
306 297 291 276 261 249 250 256 270 283 287 291 295 303 313 323 334 343 339 337 338 342 343 344 344 347 347 349 350 351 348 348 349 347 346 346 347 347 347 347 348 348 347
302 292 281 273 254 244 240 258 274 279 287 292 297 302 309 317 325 330 327 328 331 336 340 340 341 342 344 345 346 347 345 343 342 343 343 343 344 344 344 344 345 345 345
302 292 284 277 266 251 257 268 275 280 285 292 297 300 304 309 314 319 319 319 323 327 332 334 338 340 341 342 341 341 340 339 339 338 339 341 342 341 340 340 340 341 341
296 286 279 277 269 265 270 272 276 280 284 289 292 296 303 304 305 307 309 312 316 320 324 328 331 333 335 337 337 337 337 337 335 335 334 335 337 339 337 337 337 336 337
297 288 278 278 271 268 272 273 277 280 283 287 289 294 295 298 300 302 304 306 309 313 318 322 325 327 329 332 333 335 335 333 333 334 334 333 332 333 335 334 334 334 332
292 288 280 275 274 273 274 276 278 281 284 287 291 293 293 295 298 301 303 305 308 310 315 319 321 323 325 327 330 331 331 331 332 332 332 332 331 331 331 331 330 331 330
287 285 279 279 276 275 277 278 278 279 283 285 288 290 292 293 296 298 301 304 306 309 312 314 317 320 323 325 327 328 329 330 331 332 331 331 331 330 329 328 328 329 328
285 283 279 278 277 275 277 279 281 280 280 283 285 287 289 291 293 296 299 302 304 308 311 313 315 317 321 324 326 328 329 329 330 330 329 330 330 330 330 329 328 327 326
284 282 280 280 278 277 278 280 282 282 283 284 284 285 288 290 292 294 297 301 304 308 310 313 316 317 320 322 325 328 328 328 329 330 330 330 329 329 329 329 329 328 327
284 281 282 281 281 281 280 281 282 283 283 284 284 284 285 288 291 293 296 299 302 306 310 312 314 316 320 323 325 328 327 327 328 328 329 329 329 329 329 328 327 328 328